QPF
0.02 0.02 0.02 0.02 0.03 0.04 0.03 0.02 0.02 0.02 0.01 0.01 0.01 0.01 0.01 0.01 0.01 0.01 0.01 0.01 0.03 0.06 0.08 0.07 0.06 0.06 0.05 0.04 0.02 0.01 0.01 0.01 0.01 0.01 0.01 0.01 0.01 0.01 0.01 0.01 0.01 0.01 0.01
0.03 0.02 0.02 0.02 0.03 0.03 0.03 0.02 0.02 0.01 0.01 0.01 0.00 0.01 0.01 0.01 0.01 0.01 0.01 0.01 0.02 0.05 0.08 0.08 0.07 0.07 0.08 0.08 0.06 0.03 0.01 0.01 0.01 0.01 0.01 0.02 0.02 0.02 0.01 0.01 0.01 0.01 0.01
0.05 0.03 0.03 0.04 0.04 0.04 0.04 0.03 0.02 0.01 0.01 0.01 0.01 0.01 0.01 0.01 0.01 0.01 0.02 0.01 0.02 0.03 0.06 0.09 0.10 0.07 0.06 0.07 0.05 0.02 0.01 0.01 0.01 0.01 0.01 0.01 0.02 0.02 0.02 0.02 0.01 0.01 0.01
0.04 0.04 0.03 0.05 0.06 0.05 0.05 0.04 0.03 0.01 0.01 0.01 0.01 0.01 0.01 0.02 0.02 0.01 0.01 0.01 0.02 0.02 0.04 0.08 0.10 0.07 0.04 0.04 0.04 0.02 0.02 0.01 0.01 0.01 0.01 0.01 0.02 0.03 0.03 0.02 0.02 0.01 0.01
0.05 0.04 0.03 0.04 0.06 0.07 0.06 0.05 0.03 0.02 0.02 0.01 0.01 0.01 0.01 0.01 0.02 0.02 0.01 0.01 0.01 0.02 0.03 0.06 0.09 0.05 0.04 0.03 0.04 0.03 0.02 0.01 0.01 0.01 0.01 0.01 0.01 0.02 0.04 0.04 0.04 0.03 0.02
0.07 0.05 0.04 0.04 0.06 0.07 0.09 0.08 0.04 0.03 0.02 0.02 0.01 0.01 0.01 0.01 0.01 0.02 0.02 0.01 0.02 0.02 0.02 0.03 0.06 0.04 0.03 0.03 0.02 0.03 0.02 0.01 0.01 0.00 0.01 0.01 0.01 0.01 0.01 0.03 0.04 0.05 0.04
0.07 0.06 0.05 0.05 0.06 0.07 0.08 0.10 0.08 0.04 0.03 0.02 0.03 0.03 0.03 0.02 0.02 0.02 0.02 0.02 0.02 0.02 0.02 0.03 0.05 0.03 0.02 0.03 0.02 0.02 0.02 0.01 0.01 0.01 0.01 0.01 0.01 0.01 0.01 0.02 0.03 0.03 0.03
0.07 0.06 0.06 0.05 0.07 0.08 0.07 0.08 0.09 0.06 0.03 0.02 0.03 0.04 0.04 0.04 0.04 0.04 0.03 0.02 0.02 0.02 0.02 0.03 0.04 0.04 0.03 0.02 0.02 0.02 0.02 0.01 0.01 0.01 0.01 0.01 0.01 0.01 0.01 0.01 0.03 0.03 0.02
0.07 0.06 0.06 0.06 0.07 0.09 0.09 0.08 0.08 0.07 0.04 0.02 0.02 0.04 0.05 0.04 0.04 0.04 0.04 0.03 0.02 0.02 0.02 0.03 0.05 0.05 0.04 0.02 0.02 0.01 0.01 0.01 0.01 0.01 0.01 0.01 0.01 0.01 0.01 0.01 0.01 0.03 0.04
0.10 0.07 0.05 0.06 0.07 0.09 0.11 0.10 0.08 0.06 0.05 0.04 0.03 0.03 0.03 0.04 0.04 0.04 0.04 0.03 0.02 0.02 0.02 0.03 0.04 0.06 0.06 0.03 0.02 0.02 0.01 0.01 0.01 0.01 0.01 0.01 0.01 0.01 0.01 0.01 0.01 0.01 0.03
0.12 0.10 0.06 0.05 0.07 0.08 0.11 0.13 0.11 0.08 0.05 0.04 0.04 0.03 0.03 0.03 0.03 0.04 0.04 0.04 0.03 0.02 0.02 0.02 0.03 0.04 0.05 0.05 0.03 0.02 0.02 0.01 0.01 0.01 0.01 0.01 0.01 0.01 0.01 0.01 0.01 0.01 0.01
0.12 0.11 0.10 0.06 0.06 0.08 0.10 0.13 0.12 0.11 0.09 0.06 0.04 0.04 0.04 0.03 0.03 0.03 0.03 0.03 0.03 0.03 0.02 0.03 0.03 0.04 0.04 0.04 0.04 0.03 0.02 0.02 0.01 0.01 0.01 0.01 0.01 0.01 0.00 0.00 0.00 0.01 0.01
0.15 0.12 0.09 0.08 0.06 0.06 0.09 0.12 0.12 0.10 0.10 0.09 0.07 0.06 0.05 0.05 0.04 0.04 0.04 0.04 0.04 0.04 0.03 0.03 0.03 0.04 0.04 0.04 0.03 0.03 0.02 0.01 0.01 0.01 0.01 0.00 0.00 0.00 0.00 0.00 0.00 0.01 0.01
0.13 0.15 0.12 0.11 0.09 0.06 0.07 0.09 0.10 0.10 0.10 0.10 0.09 0.08 0.07 0.06 0.06 0.06 0.05 0.05 0.05 0.05 0.04 0.03 0.03 0.03 0.03 0.03 0.02 0.02 0.02 0.01 0.01 0.01 0.01 0.00 0.00 0.00 0.00 0.00 0.00 0.00 0.01
0.09 0.13 0.14 0.13 0.11 0.10 0.09 0.09 0.10 0.10 0.11 0.11 0.10 0.10 0.10 0.07 0.06 0.06 0.06 0.05 0.05 0.05 0.04 0.03 0.03 0.03 0.03 0.03 0.03 0.01 0.01 0.01 0.01 0.01 0.00 0.00 0.00 0.00 0.00 0.00 0.00 0.00 0.00
0.05 0.10 0.13 0.13 0.12 0.10 0.09 0.11 0.12 0.12 0.11 0.11 0.10 0.10 0.10 0.09 0.06 0.05 0.05 0.04 0.03 0.03 0.03 0.02 0.02 0.02 0.02 0.02 0.02 0.01 0.01 0.01 0.01 0.00 0.00 0.00 0.00 0.00 0.00 0.00 0.00 0.00 0.00
0.04 0.05 0.09 0.12 0.12 0.12 0.11 0.10 0.10 0.10 0.11 0.11 0.11 0.10 0.09 0.09 0.09 0.07 0.06 0.05 0.05 0.04 0.03 0.02 0.02 0.01 0.01 0.01 0.01 0.01 0.01 0.01 0.01 0.01 0.00 0.00 0.00 0.00 0.00 0.00 0.00 0.00 0.00
0.03 0.04 0.05 0.08 0.10 0.09 0.10 0.10 0.08 0.07 0.07 0.08 0.08 0.08 0.08 0.07 0.07 0.07 0.06 0.04 0.04 0.03 0.03 0.02 0.02 0.01 0.01 0.01 0.01 0.01 0.01 0.01 0.01 0.01 0.01 0.00 0.00 0.00 0.00 0.00 0.00 0.01 0.01
0.03 0.03 0.04 0.06 0.08 0.08 0.07 0.07 0.07 0.06 0.06 0.06 0.06 0.05 0.05 0.05 0.05 0.04 0.04 0.03 0.02 0.02 0.02 0.01 0.02 0.01 0.01 0.01 0.01 0.01 0.01 0.01 0.01 0.01 0.00 0.00 0.00 0.00 0.00 0.01 0.01 0.01 0.01
0.03 0.03 0.05 0.05 0.06 0.07 0.07 0.06 0.05 0.04 0.04 0.04 0.04 0.04 0.04 0.04 0.03 0.03 0.02 0.02 0.02 0.02 0.01 0.01 0.01 0.01 0.01 0.01 0.01 0.01 0.01 0.01 0.01 0.01 0.00 0.00 0.00 0.00 0.01 0.01 0.01 0.01 0.00
0.04 0.03 0.04 0.05 0.07 0.08 0.07 0.06 0.05 0.04 0.03 0.02 0.03 0.03 0.03 0.03 0.03 0.03 0.02 0.02 0.01 0.01 0.01 0.01 0.01 0.01 0.01 0.01 0.01 0.00 0.00 0.01 0.01 0.01 0.01 0.01 0.00 0.00 0.00 0.01 0.01 0.01 0.01
0.06 0.05 0.04 0.05 0.06 0.07 0.08 0.07 0.06 0.05 0.03 0.02 0.02 0.02 0.03 0.04 0.04 0.03 0.03 0.02 0.01 0.01 0.01 0.01 0.01 0.01 0.01 0.01 0.01 0.01 0.01 0.01 0.01 0.00 0.00 0.01 0.01 0.01 0.01 0.01 0.01 0.00 0.00
0.07 0.07 0.06 0.05 0.05 0.06 0.07 0.07 0.06 0.05 0.04 0.03 0.03 0.03 0.03 0.03 0.03 0.03 0.03 0.03 0.02 0.02 0.01 0.01 0.01 0.00 0.01 0.01 0.01 0.01 0.01 0.01 0.01 0.01 0.00 0.00 0.00 0.01 0.01 0.01 0.01 0.00 0.00
0.06 0.07 0.08 0.07 0.06 0.05 0.06 0.06 0.07 0.06 0.05 0.04 0.04 0.04 0.04 0.04 0.04 0.03 0.03 0.04 0.03 0.02 0.02 0.01 0.00 0.01 0.01 0.01 0.01 0.01 0.01 0.01 0.01 0.01 0.01 0.01 0.01 0.00 0.00 0.00 0.01 0.01 0.00
0.05 0.06 0.07 0.08 0.08 0.07 0.06 0.06 0.07 0.06 0.05 0.05 0.04 0.03 0.03 0.03 0.04 0.04 0.03 0.03 0.03 0.02 0.02 0.01 0.01 0.01 0.02 0.02 0.01 0.01 0.02 0.02 0.01 0.01 0.00 0.01 0.00 0.00 0.00 0.00 0.00 0.00 0.01
0.04 0.05 0.07 0.08 0.08 0.08 0.08 0.07 0.07 0.06 0.05 0.05 0.04 0.04 0.04 0.04 0.04 0.04 0.03 0.03 0.02 0.02 0.01 0.01 0.01 0.01 0.01 0.02 0.01 0.01 0.01 0.01 0.01 0.01 0.01 0.01 0.01 0.01 0.01 0.00 0.00 0.00 0.00
MSLP
1018.75 1019.18 1019.66 1020.18 1020.70 1021.18 1021.58 1021.88 1022.08 1022.19 1022.25 1022.30 1022.38 1022.51 1022.70 1022.93 1023.18 1023.43 1023.65 1023.83 1023.96 1024.05 1024.11 1024.15 1024.18 1024.20 1024.21 1024.20 1024.17 1024.12 1024.06 1023.99 1023.93 1023.91 1023.93 1024.00 1024.12 1024.26 1024.42 1024.56 1024.68 1024.75 1024.79
1018.69 1019.13 1019.62 1020.16 1020.71 1021.24 1021.70 1022.05 1022.30 1022.46 1022.56 1022.63 1022.72 1022.85 1023.04 1023.26 1023.50 1023.74 1023.94 1024.10 1024.20 1024.27 1024.30 1024.32 1024.33 1024.35 1024.36 1024.36 1024.33 1024.29 1024.21 1024.13 1024.04 1023.98 1023.96 1023.99 1024.07 1024.20 1024.36 1024.54 1024.70 1024.84 1024.95
1018.62 1019.05 1019.55 1020.11 1020.70 1021.27 1021.79 1022.21 1022.53 1022.75 1022.89 1023.00 1023.12 1023.26 1023.44 1023.65 1023.88 1024.09 1024.27 1024.40 1024.48 1024.51 1024.52 1024.51 1024.51 1024.52 1024.53 1024.53 1024.52 1024.47 1024.39 1024.28 1024.17 1024.06 1023.99 1023.97 1024.01 1024.11 1024.26 1024.44 1024.65 1024.85 1025.04
1018.55 1018.97 1019.47 1020.04 1020.65 1021.26 1021.83 1022.32 1022.71 1022.99 1023.20 1023.36 1023.50 1023.67 1023.86 1024.07 1024.28 1024.48 1024.63 1024.74 1024.79 1024.80 1024.78 1024.75 1024.73 1024.73 1024.74 1024.75 1024.74 1024.69 1024.61 1024.49 1024.34 1024.19 1024.07 1023.98 1023.97 1024.02 1024.14 1024.33 1024.56 1024.81 1025.07
1018.49 1018.89 1019.38 1019.94 1020.56 1021.19 1021.80 1022.34 1022.79 1023.14 1023.41 1023.63 1023.82 1024.02 1024.23 1024.45 1024.66 1024.85 1025.00 1025.09 1025.13 1025.12 1025.08 1025.04 1025.01 1025.00 1025.01 1025.01 1025.01 1024.97 1024.88 1024.75 1024.57 1024.38 1024.20 1024.05 1023.97 1023.96 1024.05 1024.21 1024.45 1024.73 1025.04
1018.44 1018.82 1019.28 1019.82 1020.43 1021.06 1021.69 1022.26 1022.76 1023.18 1023.51 1023.79 1024.03 1024.27 1024.51 1024.75 1024.98 1025.18 1025.34 1025.43 1025.47 1025.46 1025.42 1025.38 1025.34 1025.33 1025.33 1025.34 1025.33 1025.29 1025.20 1025.06 1024.86 1024.62 1024.38 1024.17 1024.02 1023.95 1023.98 1024.10 1024.33 1024.62 1024.95
1018.40 1018.77 1019.20 1019.70 1020.27 1020.88 1021.50 1022.09 1022.63 1023.09 1023.48 1023.81 1024.11 1024.40 1024.67 1024.95 1025.21 1025.43 1025.61 1025.73 1025.79 1025.80 1025.78 1025.74 1025.71 1025.70 1025.70 1025.71 1025.70 1025.66 1025.56 1025.40 1025.17 1024.90 1024.61 1024.33 1024.11 1023.96 1023.93 1024.01 1024.19 1024.48 1024.82
1018.39 1018.74 1019.13 1019.58 1020.10 1020.68 1021.27 1021.86 1022.41 1022.91 1023.34 1023.72 1024.07 1024.40 1024.72 1025.03 1025.32 1025.59 1025.80 1025.96 1026.06 1026.11 1026.12 1026.11 1026.09 1026.09 1026.10 1026.11 1026.10 1026.05 1025.94 1025.76 1025.50 1025.18 1024.84 1024.50 1024.20 1023.99 1023.88 1023.91 1024.06 1024.32 1024.66
1018.38 1018.72 1019.08 1019.48 1019.95 1020.47 1021.03 1021.60 1022.16 1022.67 1023.14 1023.56 1023.95 1024.31 1024.66 1025.00 1025.33 1025.62 1025.88 1026.08 1026.23 1026.34 1026.39 1026.43 1026.45 1026.47 1026.49 1026.51 1026.49 1026.43 1026.31 1026.10 1025.81 1025.45 1025.05 1024.64 1024.28 1024.00 1023.83 1023.80 1023.91 1024.15 1024.49
1018.38 1018.72 1019.05 1019.40 1019.82 1020.29 1020.81 1021.36 1021.91 1022.43 1022.91 1023.36 1023.77 1024.15 1024.52 1024.88 1025.22 1025.54 1025.84 1026.09 1026.30 1026.46 1026.59 1026.68 1026.75 1026.81 1026.86 1026.88 1026.86 1026.79 1026.64 1026.40 1026.07 1025.67 1025.21 1024.75 1024.32 1023.98 1023.76 1023.68 1023.77 1023.99 1024.34
1018.35 1018.70 1019.02 1019.35 1019.72 1020.15 1020.64 1021.16 1021.69 1022.21 1022.70 1023.15 1023.57 1023.95 1024.32 1024.68 1025.03 1025.36 1025.69 1025.99 1026.25 1026.48 1026.68 1026.84 1026.97 1027.08 1027.16 1027.20 1027.19 1027.11 1026.93 1026.66 1026.29 1025.84 1025.33 1024.82 1024.34 1023.95 1023.69 1023.58 1023.65 1023.87 1024.23
1018.29 1018.66 1018.98 1019.30 1019.65 1020.05 1020.51 1021.00 1021.52 1022.03 1022.51 1022.95 1023.36 1023.73 1024.09 1024.43 1024.77 1025.11 1025.45 1025.78 1026.10 1026.39 1026.66 1026.90 1027.10 1027.27 1027.39 1027.46 1027.46 1027.36 1027.17 1026.87 1026.46 1025.97 1025.42 1024.87 1024.35 1023.93 1023.65 1023.53 1023.59 1023.82 1024.19
1018.17 1018.58 1018.93 1019.25 1019.60 1019.99 1020.42 1020.89 1021.39 1021.88 1022.35 1022.77 1023.16 1023.51 1023.83 1024.15 1024.47 1024.81 1025.15 1025.51 1025.87 1026.22 1026.56 1026.87 1027.14 1027.37 1027.54 1027.64 1027.65 1027.56 1027.36 1027.04 1026.60 1026.08 1025.51 1024.93 1024.40 1023.96 1023.67 1023.55 1023.62 1023.86 1024.26
1018.01 1018.46 1018.84 1019.19 1019.55 1019.93 1020.36 1020.82 1021.29 1021.76 1022.20 1022.61 1022.97 1023.29 1023.59 1023.88 1024.18 1024.50 1024.84 1025.22 1025.61 1026.00 1026.39 1026.77 1027.10 1027.39 1027.61 1027.74 1027.78 1027.70 1027.50 1027.18 1026.74 1026.21 1025.63 1025.05 1024.52 1024.09 1023.80 1023.70 1023.78 1024.04 1024.44
1017.80 1018.30 1018.73 1019.12 1019.50 1019.90 1020.32 1020.77 1021.22 1021.67 1022.09 1022.46 1022.80 1023.09 1023.37 1023.64 1023.92 1024.22 1024.57 1024.94 1025.35 1025.78 1026.21 1026.62 1027.01 1027.34 1027.60 1027.78 1027.84 1027.79 1027.61 1027.31 1026.89 1026.38 1025.82 1025.26 1024.76 1024.35 1024.09 1024.00 1024.09 1024.36 1024.77
1017.58 1018.12 1018.60 1019.03 1019.45 1019.87 1020.30 1020.74 1021.18 1021.60 1021.99 1022.35 1022.66 1022.94 1023.20 1023.46 1023.73 1024.02 1024.36 1024.74 1025.15 1025.58 1026.03 1026.46 1026.87 1027.24 1027.53 1027.74 1027.85 1027.83 1027.70 1027.44 1027.06 1026.61 1026.10 1025.60 1025.14 1024.77 1024.55 1024.48 1024.58 1024.84 1025.24
1017.38 1017.95 1018.47 1018.96 1019.41 1019.86 1020.29 1020.73 1021.15 1021.55 1021.92 1022.26 1022.57 1022.84 1023.10 1023.36 1023.63 1023.92 1024.25 1024.62 1025.02 1025.45 1025.88 1026.32 1026.73 1027.10 1027.42 1027.65 1027.80 1027.83 1027.76 1027.57 1027.27 1026.90 1026.48 1026.05 1025.66 1025.36 1025.18 1025.13 1025.24 1025.48 1025.84
1017.21 1017.80 1018.36 1018.88 1019.37 1019.84 1020.29 1020.72 1021.13 1021.52 1021.88 1022.22 1022.52 1022.80 1023.07 1023.34 1023.62 1023.92 1024.25 1024.60 1024.98 1025.37 1025.78 1026.19 1026.58 1026.94 1027.26 1027.52 1027.70 1027.79 1027.79 1027.69 1027.50 1027.23 1026.92 1026.60 1026.30 1026.07 1025.94 1025.92 1026.02 1026.24 1026.55
1017.10 1017.68 1018.25 1018.80 1019.32 1019.81 1020.27 1020.70 1021.11 1021.50 1021.86 1022.19 1022.51 1022.81 1023.10 1023.40 1023.69 1024.00 1024.32 1024.65 1025.00 1025.35 1025.71 1026.07 1026.43 1026.76 1027.07 1027.34 1027.56 1027.72 1027.79 1027.80 1027.72 1027.58 1027.39 1027.19 1026.99 1026.85 1026.77 1026.77 1026.87 1027.06 1027.32
1017.04 1017.58 1018.15 1018.71 1019.24 1019.75 1020.22 1020.65 1021.07 1021.45 1021.82 1022.17 1022.51 1022.84 1023.16 1023.48 1023.80 1024.11 1024.43 1024.74 1025.05 1025.36 1025.66 1025.97 1026.27 1026.57 1026.87 1027.14 1027.39 1027.60 1027.76 1027.86 1027.90 1027.89 1027.83 1027.75 1027.67 1027.61 1027.59 1027.62 1027.72 1027.88 1028.09
1017.03 1017.50 1018.03 1018.57 1019.10 1019.61 1020.09 1020.54 1020.96 1021.36 1021.74 1022.12 1022.48 1022.85 1023.20 1023.55 1023.89 1024.22 1024.53 1024.82 1025.10 1025.36 1025.61 1025.86 1026.12 1026.38 1026.65 1026.92 1027.19 1027.45 1027.68 1027.88 1028.03 1028.13 1028.20 1028.24 1028.26 1028.28 1028.31 1028.38 1028.47 1028.61 1028.78
1017.05 1017.43 1017.89 1018.39 1018.90 1019.40 1019.88 1020.33 1020.77 1021.19 1021.60 1022.00 1022.40 1022.80 1023.19 1023.57 1023.93 1024.27 1024.58 1024.86 1025.11 1025.34 1025.55 1025.75 1025.97 1026.19 1026.44 1026.71 1026.99 1027.28 1027.57 1027.84 1028.08 1028.28 1028.45 1028.59 1028.70 1028.79 1028.88 1028.97 1029.08 1029.20 1029.34
1017.11 1017.36 1017.73 1018.16 1018.62 1019.10 1019.57 1020.03 1020.48 1020.92 1021.36 1021.80 1022.23 1022.67 1023.09 1023.50 1023.89 1024.24 1024.56 1024.83 1025.07 1025.28 1025.46 1025.64 1025.83 1026.03 1026.26 1026.52 1026.81 1027.11 1027.43 1027.75 1028.05 1028.32 1028.57 1028.78 1028.96 1029.11 1029.25 1029.37 1029.48 1029.60 1029.72
1017.22 1017.33 1017.58 1017.91 1018.31 1018.74 1019.19 1019.64 1020.10 1020.57 1021.03 1021.50 1021.97 1022.44 1022.90 1023.34 1023.75 1024.12 1024.45 1024.74 1024.98 1025.18 1025.36 1025.54 1025.71 1025.90 1026.12 1026.37 1026.66 1026.97 1027.29 1027.63 1027.96 1028.27 1028.55 1028.81 1029.04 1029.24 1029.41 1029.56 1029.69 1029.81 1029.93
1017.42 1017.38 1017.48 1017.70 1018.00 1018.37 1018.77 1019.21 1019.67 1020.14 1020.63 1021.13 1021.63 1022.13 1022.62 1023.08 1023.52 1023.91 1024.27 1024.57 1024.83 1025.06 1025.26 1025.44 1025.63 1025.83 1026.04 1026.29 1026.56 1026.86 1027.18 1027.50 1027.83 1028.15 1028.45 1028.73 1028.98 1029.21 1029.40 1029.58 1029.73 1029.86 1029.99
1017.74 1017.54 1017.49 1017.57 1017.76 1018.03 1018.37 1018.77 1019.21 1019.68 1020.18 1020.70 1021.22 1021.74 1022.26 1022.75 1023.21 1023.64 1024.02 1024.36 1024.66 1024.92 1025.15 1025.37 1025.58 1025.80 1026.02 1026.27 1026.53 1026.81 1027.10 1027.40 1027.71 1028.01 1028.30 1028.58 1028.84 1029.08 1029.30 1029.49 1029.66 1029.81 1029.95
Thickness
5654 5655 5657 5658 5659 5659 5660 5661 5662 5662 5662 5662 5661 5661 5661 5661 5661 5660 5659 5658 5659 5659 5659 5659 5658 5658 5657 5655 5654 5652 5651 5650 5649 5648 5647 5646 5645 5644 5642 5641 5640 5639 5638
5647 5648 5650 5651 5652 5653 5655 5656 5657 5656 5656 5656 5656 5655 5655 5655 5655 5655 5654 5653 5653 5653 5653 5653 5653 5652 5651 5650 5649 5647 5646 5645 5644 5643 5642 5641 5640 5639 5638 5636 5635 5634 5633
5639 5641 5642 5644 5646 5647 5648 5650 5651 5650 5650 5650 5650 5650 5650 5650 5649 5649 5649 5648 5648 5647 5647 5647 5647 5646 5646 5644 5643 5642 5641 5640 5639 5638 5637 5636 5635 5634 5632 5631 5630 5629 5628
5630 5633 5635 5637 5638 5640 5641 5643 5645 5645 5645 5645 5644 5644 5644 5643 5643 5643 5643 5642 5642 5642 5641 5641 5640 5640 5639 5638 5638 5637 5636 5634 5634 5633 5632 5631 5630 5629 5627 5626 5625 5624 5623
5621 5624 5627 5629 5631 5633 5635 5637 5639 5640 5639 5638 5638 5637 5637 5636 5636 5636 5637 5636 5636 5635 5635 5634 5634 5633 5632 5632 5632 5631 5630 5629 5628 5627 5626 5625 5624 5623 5622 5621 5620 5619 5618
5613 5616 5618 5621 5623 5626 5628 5630 5631 5632 5633 5632 5630 5629 5629 5629 5629 5630 5630 5629 5629 5629 5629 5628 5628 5626 5626 5625 5625 5625 5624 5623 5622 5621 5620 5619 5618 5617 5616 5616 5615 5614 5613
5603 5606 5610 5612 5615 5618 5621 5623 5625 5624 5625 5625 5624 5621 5620 5620 5622 5622 5622 5623 5622 5622 5622 5622 5621 5621 5620 5619 5619 5618 5618 5617 5616 5615 5614 5614 5613 5612 5611 5610 5609 5608 5607
5593 5597 5600 5604 5607 5609 5612 5615 5617 5617 5618 5619 5621 5618 5615 5613 5613 5613 5614 5615 5615 5615 5615 5615 5615 5614 5614 5613 5612 5612 5611 5611 5611 5610 5609 5608 5607 5606 5605 5605 5603 5602 5601
5583 5587 5591 5595 5598 5602 5605 5607 5609 5611 5612 5612 5616 5617 5615 5615 5610 5606 5606 5607 5608 5608 5608 5608 5608 5607 5607 5606 5606 5605 5604 5604 5604 5604 5603 5602 5601 5600 5599 5598 5597 5596 5595
5573 5577 5582 5585 5589 5594 5597 5599 5601 5604 5606 5606 5607 5610 5613 5613 5609 5603 5600 5600 5600 5601 5602 5601 5601 5600 5600 5600 5599 5598 5598 5597 5597 5596 5596 5596 5595 5594 5593 5592 5591 5589 5588
5563 5567 5572 5576 5580 5584 5588 5591 5594 5596 5599 5601 5602 5602 5603 5604 5605 5604 5599 5595 5593 5594 5594 5594 5593 5593 5593 5593 5592 5592 5591 5590 5590 5590 5590 5589 5588 5587 5585 5584 5583 5582 5581
5553 5558 5562 5566 5570 5575 5579 5583 5586 5588 5591 5594 5594 5595 5597 5598 5599 5600 5598 5593 5590 5586 5585 5585 5585 5586 5585 5585 5584 5584 5583 5583 5583 5582 5582 5581 5580 5579 5578 5576 5575 5574 5573
5544 5548 5552 5557 5561 5565 5570 5574 5577 5580 5582 5584 5586 5587 5589 5591 5591 5592 5590 5586 5582 5578 5577 5577 5577 5577 5576 5576 5576 5576 5575 5575 5575 5574 5574 5573 5572 5571 5569 5568 5567 5565 5564
5533 5537 5542 5546 5551 5555 5560 5563 5567 5570 5572 5574 5576 5577 5579 5580 5581 5583 5582 5579 5575 5572 5571 5571 5569 5569 5568 5568 5568 5567 5567 5566 5566 5566 5565 5564 5563 5562 5561 5559 5558 5556 5555
5520 5526 5531 5535 5540 5545 5549 5553 5557 5560 5562 5565 5566 5568 5570 5571 5572 5573 5573 5574 5573 5571 5569 5566 5563 5562 5560 5560 5559 5559 5559 5558 5558 5557 5557 5556 5555 5553 5552 5550 5549 5547 5546
5509 5515 5520 5525 5529 5534 5537 5542 5546 5549 5552 5554 5556 5558 5560 5561 5563 5563 5563 5564 5565 5567 5565 5562 5558 5555 5553 5552 5551 5551 5551 5550 5549 5549 5548 5547 5545 5544 5542 5541 5540 5538 5536
5498 5503 5510 5515 5518 5522 5526 5531 5536 5538 5541 5544 5546 5549 5552 5553 5554 5554 5555 5555 5555 5556 5556 5552 5549 5547 5545 5544 5544 5543 5543 5542 5541 5540 5539 5538 5536 5535 5533 5532 5530 5529 5527
5487 5492 5497 5503 5508 5512 5516 5521 5526 5529 5531 5534 5537 5540 5542 5543 5545 5546 5546 5546 5546 5547 5546 5544 5541 5538 5537 5537 5536 5535 5534 5534 5533 5532 5531 5529 5528 5526 5525 5523 5521 5520 5518
5476 5481 5486 5492 5497 5502 5506 5511 5515 5518 5521 5525 5527 5530 5532 5535 5537 5537 5537 5537 5537 5537 5537 5536 5534 5531 5529 5527 5526 5526 5525 5525 5524 5523 5522 5520 5519 5517 5516 5514 5512 5510 5508
5464 5470 5475 5480 5486 5491 5496 5501 5505 5508 5512 5514 5517 5520 5523 5525 5528 5528 5528 5529 5528 5528 5527 5527 5525 5523 5521 5518 5517 5517 5517 5516 5516 5514 5513 5511 5510 5509 5507 5505 5503 5501 5498
5452 5458 5463 5469 5474 5481 5486 5490 5495 5499 5502 5505 5507 5510 5513 5515 5518 5519 5520 5521 5520 5520 5519 5518 5517 5515 5513 5511 5510 5510 5509 5508 5507 5505 5504 5503 5502 5500 5498 5496 5493 5491 5489
5439 5445 5451 5457 5463 5470 5475 5479 5484 5488 5491 5494 5497 5500 5503 5504 5507 5508 5510 5511 5512 5512 5512 5511 5510 5510 5508 5506 5504 5501 5500 5499 5500 5497 5495 5494 5492 5491 5489 5487 5484 5481 5479
5427 5434 5440 5446 5452 5459 5464 5468 5472 5477 5481 5484 5487 5489 5492 5494 5496 5498 5499 5500 5501 5502 5503 5505 5504 5504 5502 5500 5497 5494 5492 5492 5492 5488 5484 5485 5483 5482 5479 5477 5474 5471 5468
5416 5423 5429 5435 5441 5448 5453 5458 5461 5466 5471 5474 5476 5480 5482 5484 5486 5488 5490 5491 5492 5492 5493 5494 5496 5495 5493 5491 5489 5487 5484 5481 5478 5476 5474 5475 5474 5472 5469 5466 5464 5461 5458
5404 5411 5418 5424 5430 5437 5442 5447 5450 5455 5460 5463 5466 5469 5472 5475 5477 5477 5479 5481 5482 5482 5481 5482 5483 5483 5482 5480 5478 5475 5472 5471 5470 5468 5464 5464 5463 5461 5459 5457 5454 5451 5448
5393 5400 5406 5413 5419 5426 5431 5436 5439 5445 5449 5452 5455 5458 5461 5464 5465 5466 5469 5471 5472 5472 5471 5471 5471 5471 5470 5469 5467 5466 5465 5463 5462 5459 5456 5453 5451 5448 5448 5447 5443 5440 5438